{"data":{"norad_id":54665,"epoch":"2026-09-19T15:42:01.271232Z","epoch_age_seconds":95043,"freshness":"FRESH","line1":"1 54665U 22166Z   26262.65418138 -.00000630  00000+0 -15571-2 0  9998","line2":"2 54665  87.9279 225.1886 0002425  81.3409 278.8000 13.21828114184188","mean_motion":13.21828114,"eccentricity":0.0002425,"inclination_deg":87.9279,"raan_deg":225.1886,"arg_perigee_deg":81.3409,"mean_anomaly_deg":278.8,"bstar":-0.0015571,"rev_number":18418,"period_min":108.94003424109,"perigee_km":1175.9130108135,"apogee_km":1179.577613735,"semimajor_km":7555.8823122743,"source":"CELESTRAK","updated_at":"2026-09-20T09:00:44.745925Z"}}